Tracking 25710 objects as of 5-Jul-2022
HD Live streaming from Space Station
objects crossing your sky now

FENGYUN 1C DEB

Track FENGYUN 1C DEB now!
10-day predictions


NORAD ID: 31348
Int'l Code: 1999-025BRC
Perigee: 795.5 km
Apogee: 852.4 km
Inclination: 99.1 °
Period: 101.2 minutes
Semi major axis: 7194 km
RCS: 0.0184 m2 (small)
Launch date: May 10, 1999
Source: People's Republic of China (PRC)
Launch site: Taiyaun Space Center, China (TSC)

Note: This is SATELLITE DEBRIS
aabbcc
Your satellite tracking list
Your tracking list is empty




NASA's NSSDC Master Catalog

Two Line Element Set (TLE):
1 31348U 99025BRC 22184.14520337  .00000751  00000-0  35462-3 0  9992
2 31348  99.1273  69.0191 0039559  93.8340  63.8021 14.22527335782962
Source of the keplerian elements: AFSPC